"TOA5","MOW","CPU:UNC_MeetingWaters","DataHourly"
"TIMESTAMP","SondeTempC","SpCond","DOSat","DOmg","pH","Turb","BattVolt_Min"
"TS","","","","","","",""
"","Smp","Smp","Smp","Smp","Smp","Smp","Min"
"2004-02-01 00:00:00",4.01999998093,0.00400000018999,96.0,12.5799999237,8.52000045776,2.0,12.3800001144
"2004-02-01 01:00:00",3.73000001907,0.00499999988824,95.8000030518,12.6499996185,8.48999977112,2.09999990463,12.3599996567
"2004-02-01 02:00:00",3.59999990463,0.00400000018999,96.1999969482,12.7399997711,8.51000022888,5.30000019073,12.3400001526
"2004-02-01 03:00:00",3.41000008583,0.00499999988824,96.5,12.8500003815,8.51000022888,3.70000004768,12.3299999237
"2004-02-01 04:00:00",2.98000001907,0.00300000002608,96.5,13.0,8.51000022888,2.79999995232,12.3199996948
"2004-02-01 05:00:00",2.95000004768,0.00499999988824,96.8000030518,13.0399999619,8.52000045776,1.79999995232,12.3000001907
"2004-02-01 06:00:00",2.56999993324,0.00200000009499,96.8000030518,13.1800003052,8.51000022888,1.60000002384,12.3000001907
"2004-02-01 07:00:00",2.56999993324,0.0010000000475,97.4000015259,13.2600002289,8.51000022888,1.79999995232,12.279999733
"2004-02-01 08:00:00",2.46000003815,0.0010000000475,97.6999969482,13.3500003815,8.52999973297,1.60000002384,12.279999733
"2004-02-01 09:00:00",2.52999997139,0.0010000000475,100.099998474,13.6499996185,8.53999996185,1.70000004768,12.3900003433
"2004-02-01 10:00:00",2.67000007629,0.00200000009499,102.699996948,13.9499998093,8.56000041962,2.0,13.8400001526
"2004-02-01 11:00:00",3.45000004768,0.00200000009499,104.900001526,13.9600000381,8.55000019073,1.60000002384,13.7899999619
"2004-02-01 12:00:00",4.30000019073,0.0010000000475,106.400001526,13.8400001526,8.57999992371,1.29999995232,13.7700004578
"2004-02-01 13:00:00",5.21999979019,0.0010000000475,107.400001526,13.6499996185,8.57999992371,1.39999997616,13.75
"2004-02-01 14:00:00",5.59000015259,0.0010000000475,106.5,13.3900003433,8.60000038147,1.60000002384,13.720000267
"2004-02-01 15:00:00",6.05000019073,0.0010000000475,105.5,13.1199998856,8.59000015259,1.39999997616,13.6800003052
"2004-02-01 16:00:00",6.07999992371,0.0010000000475,103.699996948,12.8800001144,8.60000038147,1.39999997616,13.6599998474
"2004-02-01 17:00:00",5.96000003815,0.0010000000475,101.400001526,12.6300001144,8.60000038147,1.60000002384,12.6400003433
"2004-02-01 18:00:00",5.75,0.0010000000475,99.0999984741,12.4200000763,8.60000038147,1.70000004768,12.5799999237
"2004-02-01 19:00:00",5.48999977112,0.00200000009499,94.9000015259,11.970000267,8.59000015259,1.70000004768,12.5399999619
"2004-02-01 20:00:00",5.13999986649,0.00200000009499,97.0,12.3500003815,8.56999969482,1.60000002384,12.5
"2004-02-01 21:00:00",4.92999982834,0.00200000009499,96.4000015259,12.3400001526,8.56000041962,1.79999995232,12.470000267
"2004-02-01 22:00:00",4.63000011444,0.00200000009499,96.3000030518,12.4099998474,8.56999969482,1.70000004768,12.4499998093
"2004-02-01 23:00:00",4.38999986649,0.00300000002608,96.4000015259,12.5,8.52999973297,1.70000004768,12.4200000763
"2004-02-02 00:00:00",4.13999986649,0.00300000002608,96.5,12.6099996567,8.51000022888,4.5,12.3999996185
"2004-02-02 01:00:00",3.79999995232,0.00300000002608,97.0,12.779999733,8.51000022888,3.59999990463,12.3800001144
"2004-02-02 02:00:00",3.76999998093,0.00200000009499,97.0999984741,12.8100004196,8.5,1.79999995232,12.3599996567
"2004-02-02 03:00:00",3.44000005722,0.00200000009499,97.1999969482,12.9300003052,8.51000022888,2.20000004768,12.3400001526
"2004-02-02 04:00:00",3.29999995232,0.00200000009499,97.3000030518,13.0,8.5,1.60000002384,12.3199996948
"2004-02-02 05:00:00",2.95000004768,0.00200000009499,97.5,13.1400003433,8.47000026703,1.10000002384,12.3000001907
"2004-02-02 06:00:00",2.91000008583,0.00200000009499,97.5999984741,13.1700000763,8.48999977112,1.20000004768,12.3000001907
"2004-02-02 07:00:00",2.50999999046,0.00200000009499,97.8000030518,13.3400001526,8.47000026703,1.10000002384,12.279999733
"2004-02-02 08:00:00",2.44000005722,0.00200000009499,98.5999984741,13.470000267,8.47000026703,1.0,12.2899999619
"2004-02-02 09:00:00",2.75,0.0010000000475,101.699996948,13.779999733,8.52999973297,0.600000023842,12.5100002289
"2004-02-02 10:00:00",2.96000003815,0.0010000000475,103.800003052,13.9899997711,8.53999996185,0.600000023842,13.8000001907
"2004-02-02 11:00:00",3.92000007629,0.0,106.400001526,13.970000267,8.53999996185,0.699999988079,13.75
"2004-02-02 12:00:00",4.96000003815,0.0,108.099998474,13.8299999237,8.57999992371,0.899999976158,13.7100000381
"2004-02-02 13:00:00",5.86999988556,0.0010000000475,108.599998474,13.5600004196,8.59000015259,1.10000002384,13.6800003052
"2004-02-02 14:00:00",6.40000009537,0.0010000000475,107.199996948,13.1999998093,8.60999965668,1.39999997616,13.6400003433
"2004-02-02 15:00:00",6.82000017166,0.0,106.5,12.9899997711,8.60999965668,1.20000004768,13.6199998856
"2004-02-02 16:00:00",6.98000001907,0.0,105.199996948,12.779999733,8.61999988556,1.5,13.6199998856
"2004-02-02 17:00:00",7.07000017166,0.0,103.300003052,12.5200004578,8.60999965668,1.20000004768,12.6599998474
"2004-02-02 18:00:00",6.90999984741,0.0,100.300003052,12.2100000381,8.56000041962,1.20000004768,12.6099996567
"2004-02-02 19:00:00",6.82000017166,0.0010000000475,97.8000030518,11.9300003052,8.55000019073,2.0,12.5600004196
"2004-02-02 20:00:00",6.73000001907,0.0010000000475,96.6999969482,11.8199996948,8.53999996185,1.70000004768,12.529999733
"2004-02-02 21:00:00",6.55999994278,0.0010000000475,95.9000015259,11.779999733,8.47999954224,2.0,12.5100002289
"2004-02-02 22:00:00",6.42000007629,0.0010000000475,95.5999984741,11.7700004578,8.47000026703,2.0,12.4799995422
"2004-02-02 23:00:00",6.36000013351,0.0010000000475,95.0999984741,11.7299995422,8.40999984741,1.70000004768,12.470000267
"2004-02-03 00:00:00",6.26999998093,0.0010000000475,94.5,11.6899995804,8.39999961853,1.10000002384,12.4600000381
"2004-02-03 01:00:00",6.21000003815,0.0010000000475,94.8000030518,11.7299995422,8.39000034332,1.0,12.4300003052
"2004-02-03 02:00:00",6.19000005722,0.962000012398,94.0,11.6199998856,8.61999988556,118.5,12.4200000763
"2004-02-03 03:00:00",7.23999977112,1.77499997616,93.9000015259,11.2700004578,8.06000041962,162.199996948,12.4099998474
"2004-02-03 04:00:00",7.51000022888,1.48899996281,91.0999984741,10.8699998856,8.17000007629,297.200012207,12.3900003433
"2004-02-03 05:00:00",7.05000019073,1.14400005341,95.4000015259,11.5200004578,8.26000022888,273.0,12.3900003433
"2004-02-03 06:00:00",5.73999977112,0.345999985933,101.400001526,12.6899995804,8.59000015259,625.799987793,12.3900003433
"2004-02-03 07:00:00",4.82000017166,0.203999996185,102.199996948,13.1000003815,8.64999961853,397.899993896,12.3900003433
"2004-02-03 08:00:00",5.28999996185,0.196999996901,100.599998474,12.7399997711,8.42000007629,494.399993896,12.3900003433
"2004-02-03 09:00:00",5.76999998093,0.266999989748,99.1999969482,12.4099998474,8.35999965668,262.5,12.4399995804
"2004-02-03 10:00:00",6.17999982834,0.32800000906,98.3000030518,12.1700000763,8.18999958038,195.100006104,12.5799999237
"2004-02-03 11:00:00",6.63999986649,0.363000005484,98.1999969482,12.0200004578,8.14999961853,156.399993896,12.779999733
"2004-02-03 12:00:00",7.26000022888,0.407999992371,99.3000030518,11.970000267,8.10999965668,124.400001526,13.0900001526
"2004-02-03 13:00:00",8.03999996185,0.433999985456,100.400001526,11.8599996567,8.14000034332,106.0,13.2100000381
"2004-02-03 14:00:00",8.69999980927,0.439999997616,99.5,11.5699996948,8.14000034332,87.4000015259,13.6199998856
"2004-02-03 15:00:00",9.11999988556,0.446999996901,98.6999969482,11.3599996567,8.14999961853,76.3000030518,13.5799999237
"2004-02-03 16:00:00",9.15999984741,0.460000008345,96.4000015259,11.0900001526,8.14999961853,68.0,13.5699996948
"2004-02-03 17:00:00",9.01000022888,0.451999992132,94.8000030518,10.9399995804,8.15999984741,72.1999969482,12.6400003433
"2004-02-03 18:00:00",8.72999954224,0.442999988794,94.1999969482,10.9399995804,8.15999984741,70.1999969482,12.5900001526
"2004-02-03 19:00:00",8.28999996185,0.437999993563,92.5999984741,10.8800001144,8.17000007629,51.9000015259,12.5399999619
"2004-02-03 20:00:00",8.02000045776,0.43900001049,93.5,11.0600004196,8.14000034332,47.5,12.5100002289
"2004-02-03 21:00:00",7.69000005722,0.432000011206,93.4000015259,11.1300001144,8.15999984741,40.0999984741,12.4799995422
"2004-02-03 22:00:00",7.40000009537,0.391999989748,93.5999984741,11.2399997711,8.18000030518,34.9000015259,12.4600000381
"2004-02-03 23:00:00",7.11000013351,0.308999985456,93.8000030518,11.3400001526,8.18999958038,28.3999996185,12.4399995804
"2004-02-04 00:00:00",6.88000011444,0.252999991179,94.4000015259,11.4899997711,8.21000003815,26.3999996185,12.4099998474
"2004-02-04 01:00:00",6.55000019073,0.245000004768,93.9000015259,11.5200004578,8.22999954224,22.2999992371,12.3800001144
"2004-02-04 02:00:00",6.42000007629,0.236000001431,94.9000015259,11.6800003052,8.26000022888,17.8999996185,12.3599996567
"2004-02-04 03:00:00",6.17999982834,0.231000006199,94.9000015259,11.7399997711,8.17000007629,15.0,12.3500003815
"2004-02-04 04:00:00",5.96999979019,0.230000004172,95.1999969482,11.8500003815,8.27000045776,13.0,12.3400001526
"2004-02-04 05:00:00",5.80000019073,0.226999998093,95.6999969482,11.970000267,8.25,18.1000003815,12.3199996948
"2004-02-04 06:00:00",5.63000011444,0.215000003576,96.0999984741,12.0600004196,8.25,11.3000001907,12.3199996948
"2004-02-04 07:00:00",5.42000007629,0.217999994755,96.1999969482,12.1400003433,8.30000019073,9.89999961853,12.3000001907
"2004-02-04 08:00:00",5.32000017166,0.212999999523,97.0999984741,12.2899999619,8.28999996185,8.69999980927,12.3400001526
"2004-02-04 09:00:00",5.46000003815,0.209999993443,99.8000030518,12.5900001526,8.32999992371,7.69999980927,12.7399997711
"2004-02-04 10:00:00",5.82999992371,0.209000006318,101.900001526,12.7299995422,8.35999965668,7.09999990463,13.6099996567
"2004-02-04 11:00:00",6.44000005722,0.208000004292,103.599998474,12.75,8.36999988556,6.0,13.6899995804
"2004-02-04 12:00:00",7.26999998093,0.207000002265,105.300003052,12.6999998093,8.39000034332,5.59999990463,13.6499996185
"2004-02-04 13:00:00",8.06999969482,0.212999999523,105.400001526,12.4600000381,8.39999961853,5.30000019073,13.6099996567
"2004-02-04 14:00:00",8.47000026703,0.212999999523,104.400001526,12.220000267,8.38000011444,4.69999980927,13.5900001526
"2004-02-04 15:00:00",8.85000038147,0.215000003576,103.599998474,12.0200004578,8.36999988556,5.80000019073,13.5500001907
"2004-02-04 16:00:00",8.94999980927,0.222000002861,101.800003052,11.7700004578,8.38000011444,4.19999980927,12.7299995422
"2004-02-04 17:00:00",8.93000030518,0.226999998093,99.9000015259,11.5600004196,8.36999988556,7.30000019073,12.6400003433
"2004-02-04 18:00:00",8.82999992371,0.238000005484,97.0999984741,11.2600002289,8.35999965668,9.80000019073,12.6000003815
"2004-02-04 19:00:00",8.55000019073,0.232999995351,95.4000015259,11.1400003433,8.34000015259,15.6000003815,12.5600004196
"2004-02-04 20:00:00",8.18999958038,0.231999993324,94.5999984741,11.1400003433,8.32999992371,21.8999996185,12.529999733
"2004-02-04 21:00:00",7.78000020981,0.234999999404,94.0,11.1899995804,8.32999992371,20.6000003815,12.5
"2004-02-04 22:00:00",7.40999984741,0.234999999404,93.9000015259,11.279999733,8.31000041962,25.6000003815,12.470000267
"2004-02-04 23:00:00",7.07000017166,0.231999993324,93.9000015259,11.3699998856,8.31999969482,21.1000003815,12.4399995804
"2004-02-05 00:00:00",6.71000003815,0.229000002146,94.5,11.5500001907,8.32999992371,14.3999996185,12.4200000763
"2004-02-05 01:00:00",6.42999982834,0.223000004888,95.1999969482,11.720000267,8.31999969482,9.69999980927,12.3900003433
"2004-02-05 02:00:00",6.11999988556,0.217999994755,95.9000015259,11.8900003433,8.31999969482,7.30000019073,12.3699998856
"2004-02-05 03:00:00",5.88000011444,0.21400000155,96.3000030518,12.0200004578,8.30000019073,5.5,12.3500003815
"2004-02-05 04:00:00",5.63999986649,0.212999999523,96.6999969482,12.1300001144,8.32999992371,5.19999980927,12.3299999237
"2004-02-05 05:00:00",5.44000005722,0.209999993443,97.0999984741,12.25,8.35000038147,4.40000009537,12.3199996948
"2004-02-05 06:00:00",5.26000022888,0.206000000238,97.5,12.3599996567,8.35000038147,4.59999990463,12.3000001907
"2004-02-05 07:00:00",5.09000015259,0.204999998212,97.5999984741,12.4300003052,8.36999988556,4.80000019073,12.3000001907
"2004-02-05 08:00:00",5.01000022888,0.202000007033,98.6999969482,12.5900001526,8.36999988556,4.30000019073,12.3400001526
"2004-02-05 09:00:00",5.15999984741,0.201000005007,101.199996948,12.8699998856,8.38000011444,3.90000009537,12.6300001144
"2004-02-05 10:00:00",5.44000005722,0.199000000954,103.099998474,13.0100002289,8.42000007629,3.40000009537,13.7299995422
"2004-02-05 11:00:00",5.92000007629,0.196999996901,104.5,13.029999733,8.40999984741,3.5,13.0200004578
"2004-02-05 12:00:00",6.40000009537,0.195999994874,105.400001526,12.9799995422,8.44999980927,3.0,13.7100000381
"2004-02-05 13:00:00",6.76999998093,0.187000006437,105.300003052,12.8400001526,8.46000003815,3.20000004768,13.1999998093
"2004-02-05 14:00:00",7.07000017166,0.193000003695,104.599998474,12.6700000763,8.47000026703,3.09999990463,12.7899999619
"2004-02-05 15:00:00",7.26999998093,0.194000005722,104.300003052,12.5699996948,8.47999954224,3.59999990463,12.6800003052
"2004-02-05 16:00:00",7.44000005722,0.194000005722,102.699996948,12.3199996948,8.46000003815,3.5,12.7100000381
"2004-02-05 17:00:00",7.55000019073,0.201000005007,100.900001526,12.0799999237,8.43999958038,4.30000019073,12.6199998856
"2004-02-05 18:00:00",7.61999988556,0.208000004292,98.3000030518,11.75,8.42000007629,6.59999990463,12.5799999237
"2004-02-05 19:00:00",7.65999984741,0.207000002265,96.6999969482,11.5500001907,8.40999984741,6.09999990463,12.5600004196
"2004-02-05 20:00:00",7.75,0.202000007033,96.1999969482,11.4600000381,8.39999961853,5.90000009537,12.5399999619
"2004-02-05 21:00:00",7.78999996185,0.197999998927,96.0,11.4200000763,8.38000011444,5.19999980927,12.5200004578
"2004-02-05 22:00:00",7.78999996185,0.194000005722,96.0,11.4200000763,8.36999988556,7.19999980927,12.5
"2004-02-05 23:00:00",7.82000017166,0.190999999642,95.9000015259,11.4099998474,8.36999988556,7.90000009537,12.4899997711
"2004-02-06 00:00:00",7.80000019073,0.188999995589,96.0,11.4200000763,8.36999988556,11.0,12.4600000381
"2004-02-06 01:00:00",7.80999994278,0.187000006437,95.9000015259,11.4099998474,8.35999965668,21.5,12.4399995804
"2004-02-06 02:00:00",7.86000013351,0.184000000358,95.9000015259,11.3999996185,8.38000011444,25.2999992371,12.4200000763
"2004-02-06 03:00:00",7.92999982834,0.182999998331,95.8000030518,11.3599996567,8.38000011444,22.7999992371,12.4099998474
"2004-02-06 04:00:00",7.94000005722,0.181999996305,95.5,11.3199996948,8.35999965668,20.1000003815,12.3900003433
"2004-02-06 05:00:00",7.96999979019,0.182999998331,95.1999969482,11.279999733,8.36999988556,15.1999998093,12.3800001144
"2004-02-06 06:00:00",8.0,0.184000000358,95.0999984741,11.25,8.35000038147,11.0,12.3699998856
"2004-02-06 07:00:00",8.35000038147,0.337999999523,94.8000030518,11.1300001144,8.39000034332,15.6000003815,12.3699998856
"2004-02-06 08:00:00",9.13000011444,0.316000014544,93.5,10.7600002289,8.39999961853,13.0,12.3699998856
"2004-02-06 09:00:00",10.3699998856,0.28900000453,93.8000030518,10.4899997711,8.42000007629,237.899993896,12.4099998474
"2004-02-06 10:00:00",10.2700004578,0.263000011444,95.0999984741,10.6599998474,8.39999961853,559.099975586,12.4499998093
"2004-02-06 11:00:00",10.1800003052,0.252000004053,95.8000030518,10.7600002289,8.38000011444,593.299987793,12.8900003433
"2004-02-06 12:00:00",10.1599998474,0.254000008106,95.8000030518,10.7700004578,8.35999965668,524.599975586,12.5699996948
"2004-02-06 13:00:00",9.93999958038,0.34999999404,95.1999969482,10.75,8.18000030518,682.299987793,12.5399999619
"2004-02-06 14:00:00",10.220000267,0.51599997282,92.1999969482,10.3299999237,8.06999969482,245.399993896,12.4600000381
"2004-02-06 15:00:00",10.1700000763,0.503000020981,89.0999984741,10.0,8.13000011444,299.700012207,12.4399995804
"2004-02-06 16:00:00",9.97999954224,0.441000014544,94.0,10.6099996567,8.19999980927,575.900024414,12.3900003433
"2004-02-06 17:00:00",10.2299995422,0.256000012159,95.8000030518,10.75,8.34000015259,479.700012207,12.3699998856
"2004-02-06 18:00:00",9.17000007629,0.279000014067,96.1999969482,11.0600004196,8.27000045776,377.299987793,12.3699998856
"2004-02-06 19:00:00",9.35000038147,0.218999996781,96.6999969482,11.0699996948,8.22000026703,320.299987793,12.3599996567
"2004-02-06 20:00:00",8.01000022888,0.115999996662,99.6999969482,11.8000001907,8.43999958038,775.0,12.3500003815
"2004-02-06 21:00:00",7.75,0.166999995708,97.9000015259,11.6599998474,8.19999980927,731.0,12.3500003815
"2004-02-06 22:00:00",8.14000034332,0.186000004411,96.0,11.3199996948,8.11999988556,471.299987793,12.3400001526
"2004-02-06 23:00:00",8.53999996185,0.221000000834,94.4000015259,11.029999733,8.05000019073,310.799987793,12.3400001526
"2004-02-07 00:00:00",8.69999980927,0.270999997854,93.6999969482,10.9099998474,7.96000003815,226.100006104,12.3400001526
"2004-02-07 01:00:00",9.05000019073,0.277000010014,92.1999969482,10.6400003433,7.94999980927,191.600006104,12.3400001526
"2004-02-07 02:00:00",9.31000041962,0.294999986887,92.3000030518,10.5799999237,7.94999980927,152.100006104,12.3400001526
"2004-02-07 03:00:00",9.42000007629,0.307000011206,92.4000015259,10.5699996948,7.94000005722,122.800003052,12.3299999237
"2004-02-07 04:00:00",9.48999977112,0.317000001669,91.8000030518,10.4799995422,7.98999977112,91.6999969482,12.3299999237
"2004-02-07 05:00:00",9.60000038147,0.324000000954,91.8000030518,10.4499998093,7.98999977112,77.1999969482,12.3199996948
"2004-02-07 06:00:00",9.57999992371,0.326999992132,91.8000030518,10.4499998093,8.01000022888,60.5,12.3199996948
"2004-02-07 07:00:00",9.39999961853,0.331000000238,91.8000030518,10.5100002289,8.02000045776,50.9000015259,12.3000001907
"2004-02-07 08:00:00",9.25,0.331000000238,92.1999969482,10.5799999237,8.06000041962,43.0,12.3000001907
"2004-02-07 09:00:00",9.25,0.324000000954,93.9000015259,10.7899999619,8.07999992371,38.2999992371,12.3800001144
"2004-02-07 10:00:00",9.46000003815,0.321999996901,96.0999984741,10.9799995422,8.13000011444,37.7999992371,13.470000267
"2004-02-07 11:00:00",9.92000007629,0.31400001049,98.4000015259,11.1199998856,8.13000011444,28.3999996185,13.470000267
"2004-02-07 12:00:00",10.5,0.294999986887,100.0,11.1499996185,8.19999980927,24.2000007629,13.4899997711
"2004-02-07 13:00:00",11.0900001526,0.273999989033,100.699996948,11.0699996948,8.21000003815,21.3999996185,13.4899997711
"2004-02-07 14:00:00",11.3500003815,0.209000006318,99.4000015259,10.8599996567,8.22000026703,17.3999996185,12.7899999619
"2004-02-07 15:00:00",11.3999996185,0.194999992847,97.8000030518,10.6800003052,8.26000022888,16.2000007629,13.5100002289
"2004-02-07 16:00:00",11.2899999619,0.188999995589,97.5,10.6700000763,8.23999977112,15.1000003815,12.6700000763
"2004-02-07 17:00:00",10.9600000381,0.189999997616,93.4000015259,10.3000001907,8.25,15.1000003815,12.5900001526
"2004-02-07 18:00:00",10.5600004196,0.187999993563,91.3000030518,10.1599998474,8.15999984741,16.2999992371,12.5600004196
"2004-02-07 19:00:00",10.1099996567,0.180000007153,90.3000030518,10.1700000763,8.14999961853,15.3000001907,12.5399999619
"2004-02-07 20:00:00",9.60000038147,0.178000003099,89.0999984741,10.1499996185,8.19999980927,14.8000001907,12.5100002289
"2004-02-07 21:00:00",9.15999984741,0.177000001073,89.0,10.2399997711,8.17000007629,14.1000003815,12.4899997711
"2004-02-07 22:00:00",8.72000026703,0.178000003099,89.8000030518,10.4499998093,8.07999992371,16.0,12.470000267
"2004-02-07 23:00:00",8.26000022888,0.175999999046,91.1999969482,10.720000267,8.06999969482,12.8000001907,12.4600000381
"2004-02-08 00:00:00",7.90000009537,0.17499999702,92.5,10.970000267,8.11999988556,14.8999996185,12.4399995804
"2004-02-08 01:00:00",7.55000019073,0.17499999702,93.3000030518,11.1599998474,8.18000030518,11.3000001907,12.4200000763
"2004-02-08 02:00:00",7.23999977112,0.17499999702,93.8000030518,11.3100004196,8.15999984741,12.6000003815,12.4200000763
"2004-02-08 03:00:00",7.01999998093,0.173999994993,94.8000030518,11.4899997711,8.17000007629,12.1999998093,12.3999996185
"2004-02-08 04:00:00",6.73999977112,0.172999992967,95.3000030518,11.6400003433,8.21000003815,10.3000001907,12.3800001144
"2004-02-08 05:00:00",6.55999994278,0.172000005841,95.5999984741,11.7299995422,8.23999977112,9.39999961853,12.3699998856
"2004-02-08 06:00:00",6.38000011444,0.172000005841,95.6999969482,11.7899999619,8.23999977112,7.69999980927,12.3599996567
"2004-02-08 07:00:00",6.21000003815,0.172000005841,96.0999984741,11.8900003433,8.22000026703,6.80000019073,12.3400001526
"2004-02-08 08:00:00",6.07999992371,0.171000003815,96.9000015259,12.029999733,8.23999977112,6.30000019073,12.3299999237
"2004-02-08 09:00:00",6.13000011444,0.170000001788,98.8000030518,12.2600002289,8.26000022888,6.19999980927,12.4899997711
"2004-02-08 10:00:00",6.34999990463,0.167999997735,100.900001526,12.4399995804,8.32999992371,6.19999980927,13.6999998093
"2004-02-08 11:00:00",7.11000013351,0.166999995708,103.300003052,12.5,8.28999996185,6.0,13.6800003052
"2004-02-08 12:00:00",7.80999994278,0.166999995708,104.199996948,12.3999996185,8.34000015259,5.5,13.6599998474
"2004-02-08 13:00:00",8.60000038147,0.165999993682,104.400001526,12.1800003052,8.35999965668,5.19999980927,13.6499996185
"2004-02-08 14:00:00",9.10000038147,0.163000002503,104.099998474,12.0,8.35999965668,5.19999980927,13.6400003433
"2004-02-08 15:00:00",9.40999984741,0.159999996424,103.0,11.779999733,8.34000015259,4.69999980927,13.5900001526
"2004-02-08 16:00:00",9.30000019073,0.152999997139,101.099998474,11.6000003815,8.31000041962,4.59999990463,13.5600004196
"2004-02-08 17:00:00",9.07999992371,0.156000003219,99.1999969482,11.4399995804,8.31000041962,4.40000009537,12.6499996185
"2004-02-08 18:00:00",8.82999992371,0.158999994397,97.5999984741,11.3199996948,8.31999969482,5.0,12.5799999237
"2004-02-08 19:00:00",8.42000007629,0.170000001788,96.4000015259,11.3000001907,8.32999992371,4.90000009537,12.5399999619
"2004-02-08 20:00:00",8.06000041962,0.172000005841,96.1999969482,11.3699998856,8.32999992371,5.30000019073,12.5
"2004-02-08 21:00:00",7.67999982834,0.172999992967,96.4000015259,11.5100002289,8.34000015259,5.40000009537,12.4799995422
"2004-02-08 22:00:00",7.30000019073,0.172000005841,96.6999969482,11.6499996185,8.36999988556,5.19999980927,12.4499998093
"2004-02-08 23:00:00",6.96999979019,0.172999992967,96.8000030518,11.7600002289,8.35999965668,5.30000019073,12.4200000763
"2004-02-09 00:00:00",6.67000007629,0.178000003099,97.0,11.8599996567,8.32999992371,4.5,12.3999996185
"2004-02-09 01:00:00",6.42000007629,0.171000003815,97.0999984741,11.9600000381,8.39000034332,6.90000009537,12.3800001144
"2004-02-09 02:00:00",6.15000009537,0.171000003815,97.3000030518,12.0699996948,8.28999996185,10.5,12.3599996567
"2004-02-09 03:00:00",5.92999982834,0.163000002503,97.5999984741,12.1599998474,8.35000038147,8.39999961853,12.3400001526
"2004-02-09 04:00:00",5.73999977112,0.172000005841,97.6999969482,12.2399997711,8.32999992371,6.90000009537,12.3199996948
"2004-02-09 05:00:00",5.53999996185,0.170000001788,97.6999969482,12.3000001907,8.36999988556,5.0,12.3000001907
"2004-02-09 06:00:00",5.40999984741,0.170000001788,98.0,12.3699998856,8.38000011444,5.0,12.279999733
"2004-02-09 07:00:00",5.28000020981,0.170000001788,98.0,12.4200000763,8.30000019073,3.70000004768,12.2700004578
"2004-02-09 08:00:00",5.28999996185,0.172999992967,98.9000015259,12.529999733,8.38000011444,3.20000004768,12.3500003815
"2004-02-09 09:00:00",5.57999992371,0.178000003099,101.400001526,12.75,8.36999988556,3.79999995232,12.7600002289
"2004-02-09 10:00:00",6.15000009537,0.165999993682,103.099998474,12.779999733,8.39000034332,3.5,12.8599996567